User: anonymous   Login
Location: Ferchesar
(52.6477°N, 12.4298°E)
Time: 17:34:34
(UTC+01:00)
Language:

Transit 4A - Orbit

View from above orbital plane
View from above orbital plane
View from above satellite
View from above satellite

Ground track
Ground track

The orbit data is extracted from the following two-line orbital elements,

1   116U 61015A   21056.85358883 -.00000016  00000-0  46972-4 0  9993
2   116  66.8105 308.7380 0077048 196.2570 163.6037 13.91784348 27565
Epoch (UTC): 25 February 2021 20:29:10
Eccentricity: 0.0077048
inclination: 66.8105°
perigee height: 866 km
apogee height: 978 km
right ascension of ascending node: 308.7380°
argument of perigee: 196.2570°
revolutions per day: 13.91784348
mean anomaly at epoch: 163.6037°
orbit number at epoch: 2756

The dashed part of the orbit path shows where the satellite is in the earth's shadow,  

DLR